Preview of NWS' New Version of Forecast
This preview is not operational and should not be used for support decisions.

Regional Weather Roundup (RWR)

Issued by National Weather Service (NWS)

                            
000
ASUS42 KTBW 180716
RWRFL 
FLORIDA REGIONAL WEATHER ROUNDUP
NATIONAL WEATHER SERVICE TAMPA BAY RUSKIN FL
300 AM EDT SAT MAY 18 2019

NOTE: "FAIR" INDICATES FEW OR NO CLOUDS BELOW 12,000 FEET WITH NO
SIGNIFICANT WEATHER AND/OR OBSTRUCTIONS TO VISIBILITY.

FLZ001>010-012>015-112-114-115-180800-
PANHANDLE FLORIDA
  
CITY           SKY/WX    TMP DP  RH WIND       PRES   REMARKS
PENSACOLA      FAIR      73  73 100 SE6       29.98F                  
PENSACOLA NAS  FAIR      76  74  93 SE8       29.97F                  
MILTON NAS     FAIR      65  65 100 CALM      29.99F FOG              
CRESTVIEW      FAIR      64  61  90 CALM      30.01S                  
MARY ESTHER    CLEAR     68  65  92 CALM      29.98S                  
PANAMA CITY    FAIR      67  64  90 CALM      29.99S                  
APALACHICOLA   FAIR      68  66  93 CALM      30.00F                  

STATION/POSITION SKY/WX   TEMP    WIND        PRES    WAVE   SWELL
                          AIR SEA DIR/SP/G            HT/PER HT/PER
                          (F)     (DEG/KT/KT) (MB)    (FT/S) (FT/S)
30.1N   87.6W                                   N/A     2/ 8
29.2N   88.2W                     140/ 10/ 10 1014.9F   2/ 5   2/ 5
PANAMA CITY BEAC           76 79  170/  5/  6 1016.2F
TOWER C          NOT AVBL

$$
FLZ011-016>038-118-127-128-134-139-239-180800-
NORTH FLORIDA
  
CITY           SKY/WX    TMP DP  RH WIND       PRES   REMARKS
MARIANNA       FAIR      67  65  93 CALM      30.00F                  
TALLAHASSEE    FAIR      70  69  97 CALM      30.01S                  
PERRY          FOG       67  66  97 CALM      30.02S VSB 1/2          
LIVE OAK       FOG       66  66 100 CALM      30.01F VSB 3/4          
CROSS CITY     FAIR      66  65  95 CALM      30.02S                  
GAINESVILLE    FAIR      69  60  73 CALM      30.05S                  
WILLISTON      FAIR      65  63  91 CALM      30.03S                  
PALATKA        MOCLDY   N/A N/A N/A CALM      30.03F                  
MAYPORT NAS      N/A    N/A N/A N/A MISG      30.02S                  
JACKSONVILLE   FAIR      68  60  75 SW3       30.01F                  
JAX NAS        FAIR      76  60  57 SW7       30.03S                  
JAX CECIL      FAIR      63  59  88 CALM      30.02F                  
FERNANDINA BEA FAIR      71  65  80 S6        30.01F                  
ST AUGUSTINE   FAIR      69  64  84 SW6       30.04F                  
PALM COAST     FAIR      64  63  94 CALM      30.03F                  

STATION/POSITION SKY/WX   TEMP    WIND        PRES    WAVE   SWELL
                          AIR SEA DIR/SP/G            HT/PER HT/PER
                          (F)     (DEG/KT/KT) (MB)    (FT/S) (FT/S)
SHELL POINT      NOT AVBL
KEATON BEACH               72      40/  2/  2 1016.2F
CEDAR KEY                  79     150/ 12/ 13 1016.4F
FERNANDINA                 74 79  160/  5/  6 1017.0F
30.7N   81.3W                 77                N/A     3/ 5   2/13
MAYPORT                    71 79  200/  4/  5 1016.7F
31.4N   80.9W              76 76  190/ 16/ 17 1016.0F   4/ 5   2/13
ST AUGUSTINE               70 79  220/  5/  6 1017.0F

$$
FLZ040-043>046-052-053-057-058-063-144-180800-
INTERIOR CENTRAL FLORIDA
  
CITY           SKY/WX    TMP DP  RH WIND       PRES   REMARKS
OCALA          FAIR      64  61  90 S3        30.03F                  
LEESBURG       FAIR      72  64  76 S8        30.03F                  
SANFORD        FAIR      70  65  84 S5        30.02F                  
ORLANDO EXEC   FAIR      69  64  84 E3        30.02F                  
ORLANDO INTL   FAIR      65  62  90 CALM      30.02F                  
KISSIMMEE      FAIR      68  64  87 CALM      30.03F                  
WINTER HAVEN   FAIR      70  64  81 E5        30.03F                  
LAKELAND       FAIR      68  61  77 CALM      30.02                   
BARTOW         FAIR      64  63  94 CALM      30.02S                  
SEBRING        FAIR      64  62  92 CALM      30.02F                  
OKEECHOBEE     FAIR      63  61  94 CALM      30.01S                  

$$
FLZ041-047-054-059-064-141-147-180800-
EAST CENTRAL FLORIDA
  
CITY           SKY/WX    TMP DP  RH WIND       PRES   REMARKS
DAYTONA BEACH  FAIR      67  65  93 CALM      30.02F                  
DELAND         FAIR      66  63  88 CALM      30.02F                  
JFK SPACE CTR  FAIR      62  60  93 CALM      30.01F                  
CAPE CANAVERAL FAIR      66  57  73 SE3       30.01F                  
PATRICK AFB    FAIR      74  64  72 SE6       30.01S                  
MELBOURNE      FAIR      68  61  78 CALM      30.02S                  
VERO BEACH     FAIR      66  61  84 CALM      30.01S                  
FT PIERCE      FAIR      65  61  87 CALM      30.01F                  
STUART         FAIR      72  63  73 E3        30.02S                  

STATION/POSITION SKY/WX   TEMP    WIND        PRES    WAVE   SWELL
                          AIR SEA DIR/SP/G            HT/PER HT/PER
                          (F)     (DEG/KT/KT) (MB)    (FT/S) (FT/S)
28.5N   80.2W              77     120/  6/ 10 1016.8
28.9N   78.5W              75 78   80/  6/  8 1017.3F   2/15   2/15
TRIDENT PIER               73 80  120/  3/  5 1017.7F
28.4N   80.5W                 78                N/A     2/13
27.5N   80.2W                 78                N/A     3/15   2/15

$$
FLZ050-056-061-142-242-148-248-149-249-151-251-155-255-
160-260-180800-
WEST CENTRAL FLORIDA
  
CITY           SKY/WX    TMP DP  RH WIND       PRES   REMARKS
CRYSTAL RIVER  FAIR      64  63  94 CALM      30.03F                  
INVERNESS      FAIR      64  64 100 CALM      30.03S                  
BROOKSVILLE    FAIR      61  58  90 CALM      30.03F                  
CLEARWATER AIR FAIR      73  61  64 SE3       30.01S                  
ST PETE CLEARW FAIR      72  63  73 SE6       30.01F                  
TAMPA INTL     FAIR      73  62  68 E3        30.02F                  
TAMPA EXEC     FAIR      63  61  94 CALM      30.03S                  
PLANT CITY     FAIR      70  64  83 E3        30.04S                  
MACDILL AFB    FAIR      72  63  73 E7        30.01S                  
PETER O KNIGHT CLOUDY    72  64  78 E7        30.02S                  
ST PETERSBURG  FAIR      75  64  68 SE10      29.99F                  
SARASOTA       FAIR      71  62  73 E9        29.98F                  
VENICE         FAIR      70  64  83 E5        30.00F                  

STATION/POSITION SKY/WX   TEMP    WIND        PRES    WAVE   SWELL
                          AIR SEA DIR/SP/G            HT/PER HT/PER
                          (F)     (DEG/KT/KT) (MB)    (FT/S) (FT/S)
27.3N   84.2W                 78                N/A     2/ 5
CLEARWATER BEACH           76 83  120/  5/  9 1016.4F
MIDDLE TAMPA BAY           72     140/ 14/ 16 1016.0F
VENICE                     71 81   80/  4/  5 1015.7F

$$
FLZ066-069-070-075>078-162-262-165-265-180800-
SOUTHWEST FLORIDA AND KEYS
  
CITY           SKY/WX    TMP DP  RH WIND       PRES   REMARKS
PUNTA GORDA    FAIR      64  61  90 E5        30.01F                  
FT MYERS       FAIR      68  64  87 E5        29.99S                  
SOUTHWEST INTL FAIR      68  63  84 E5        29.99F                  
NAPLES         FAIR      71  64  78 E7        29.98F                  
MARCO ISLAND   FAIR      69  64  84 NE3       30.00F                  
IMMOKALEE      FAIR      61  59  94 CALM      29.98S FOG              
MARATHON       FAIR      82  71  69 E7        29.96F                  
KEY WEST NAS   FAIR      81  71  71 E13       29.96F                  
KEY WEST INTL  FAIR      79  71  76 E10       29.96F                  

STATION/POSITION SKY/WX   TEMP    WIND        PRES    WAVE   SWELL
                          AIR SEA DIR/SP/G            HT/PER HT/PER
                          (F)     (DEG/KT/KT) (MB)    (FT/S) (FT/S)
NAPLES                     74 82              1015.4F
DRY TORTUGAS               80     120/ 12/ 13 1014.6F
SAND KEY                   80                 1014.5F
SOMBRERO KEY               80                 1013.9F

$$
FLZ067-068-071>074-168-172>174-180800-
SOUTHEAST FLORIDA 
  
CITY           SKY/WX    TMP DP  RH WIND       PRES   REMARKS
W PALM BEACH   FAIR      77  65  66 E7        30.00S                  
FT LAUDER-EXEC FAIR      74  65  73 CALM      29.98F                  
FT LAUDERDALE  FAIR      77  67  71 E5        29.97F                  
POMPANO BEACH  FAIR      77  66  68 E5        29.98F                  
PEMBROKE PINES FAIR      71  64  78 N3        29.99F                  
OPA LOCKA      FAIR      75  66  73 CALM      29.99F                  
MIAMI          FAIR      74  65  73 N3        29.98F                  
WEST KENDALL   FAIR      72  65  78 CALM      29.97F                  
HOMESTEAD      FAIR      73  68  83 CALM      29.97S                  

STATION/POSITION SKY/WX   TEMP    WIND        PRES    WAVE   SWELL
                          AIR SEA DIR/SP/G            HT/PER HT/PER
                          (F)     (DEG/KT/KT) (MB)    (FT/S) (FT/S)
PORT EVERGLADES            78      90/  5/  9 1015.5
VIRGINIA KEY               79 83   60/  6/  9 1014.5F
LAKE WORTH                 78 81              1016.7S
SETTLEMENT POINT           77     100/  7/  9 1015.7F

$$